441  
ASUS41 KALY 222210  
RWRALY  
 
NEW YORK STATE HOURLY WEATHER ROUNDUP  
NATIONAL WEATHER SERVICE ALBANY NY  
600 PM EDT FRI SEP 22 2017  
 
NOTE: "FAIR" INDICATES FEW OR NO CLOUDS BELOW 12,000 FEET WITH NO  
SIGNIFICANT WEATHER AND/OR NO S TO VISIBILITY
.  
 
NYZ032-033-038>043-046>054-057>066-NYZ062>081-082-084-222300-  
EAST  
 
 
CITY SKY/WX TMP DP RH WIND PRES REMARKS
 
ALBANY PTCLDY 77 48 35 N5 30.03F  
GLENS FALLS CLEAR 75 48 38 VRB5 30.04S  
POUGHKEEPSIE MOCLDY 77 50 38 N15G23 29.98R  
NEWBURGH PTCLDY 77 57 50 NE12 30.01R  
MONTGOMERY CLOUDY 77 58 51 NE6 29.99S  
WHITE PLAINS PTCLDY 76 56 49 N14 29.95S  
ISLIP MOCLDY 76 60 57 N14G23 29.91R  
NEW YORK CITY PTCLDY 79 58 48 N14 29.93S  
CENTRAL PARK MOCLDY 79 55 43 VRB7 29.97S  

 
 
NYZ005>009-017-018-044>046-055-056-222300-  
CENTRAL  
 
 
CITY SKY/WX TMP DP RH WIND PRES REMARKS
 
FULTON SUNNY 75 59 57 NW5 30.07S  
SYRACUSE MOSUNNY 77 60 55 NW10 30.05S  
ROME CLEAR 76 61 59 W5 30.05S  
ELMIRA MOSUNNY 77 62 59 NE7 30.07S  
BINGHAMTON SUNNY 73 51 46 N8 30.09S  
MONTICELLO CLEAR 75 53 46 N10 30.05S  

 
 
NYZ026>034-041>043-087-222300-  
NORTH  
 
 
CITY SKY/WX TMP DP RH WIND PRES REMARKS
 
WATERTOWN SUNNY 77 59 53 N7 30.06F  
FORT DRUM NOT AVBL  
OGDENSBURG FAIR 78 59 52 CALM 30.07S  
MASSENA CLEAR 75 58 55 NE5 30.08F  
SARANAC LAKE CLEAR 75 33 21 NE7 30.10S  
PLATTSBURGH CLEAR 74 53 48 NE5 30.07S  

 
 
NYZ001>004-010>016-019>021-085-222300-  
WEST  
 
 
CITY SKY/WX TMP DP RH WIND PRES REMARKS
 
NIAGARA FALLS SUNNY 82 55 39 NE7 30.09S  
BUFFALO MOSUNNY 80 52 37 NE6 30.09F  
DUNKIRK CLOUDY 77 58 51 NE3 30.10S  
JAMESTOWN CLOUDY 75 63 66 N6 30.14S  
WELLSVILLE SUNNY 72 54 53 NW7 30.16S  
ROCHESTER MOSUNNY 78 48 34 N6 30.10S  
PENN YAN CLOUDY 75 54 47 NW6 30.10S  

 
 
KEY  
WCI = WIND CHILL INDEX  
VSB = VISIBILITY  
HX = HEAT INDEX  

 
 
 
CLICK HERE TO GO TO PREVIOUS BULLETINS.

The Nexlab NY Page
The Nexlab VT Page
The Nexlab MA Page
The Nexlab CT Page Main Text Page